Location: Tr�vern
(48.0333°N, 4.6000°W)
Time: 17:25:32
(UTC+00:00)

Cosmos 1862 Rocket - Pass Details

Date: 14 July 2020
Orbit: 605 x 633 km, 82.5° (Epoch: 12 August)

Event Time Altitude Azimuth Distance (km) Brightness Sun altitude
Rises 01:24:02 0° 344° (NNW) 2,927 8.0 -19.1°
Reaches altitude 10° 01:26:22 10° 337° (NNW) 2,018 6.9 -19.0°
Maximum altitude 01:30:34 41° 268° (W) 923 4.3 -18.8°
Enters shadow 01:31:39 35° 233° (SW) 1,033 4.3 -18.7°
